Memphis, TN

2:12 PM CDT on June 28, 2017 (GMT -0500)
Memphis International

Weather History for KMEM - September, 2012

Change the Weather History Date:

Monday, September 3, 2012

  Actual Average Record
Temperature  
Mean Temperature 85 °F 79 °F  
Max Temperature 95 °F 89 °F 101 °F (2000)
Min Temperature 74 °F 70 °F 52 °F (1952)
Degree Days  
Heating Degree Days 0 0  
Month to date heating degree days 0 0  
Since 1 July heating degree days 0 0  
Cooling Degree Days 20 14  
Month to date cooling degree days 59 44  
Year to date cooling degree days 2296 1879  
Growing Degree Days 34 (Base 50)    
Moisture  
Dew Point 72 °F    
Average Humidity 70    
Maximum Humidity 94    
Minimum Humidity 46    
Precipitation  
Precipitation 0.00 in 0.08 in 3.10 in (1936)
Month to date precipitation 2.62 0.25  
Year to date precipitation 22.22 35.63  
Snow  
Snow 0.00 in 0.00 in - ()
Month to date snowfall 0.0 0.0  
Since 1 July snowfall 0.0 0.0  
Since 1 September snowfall 0.0 0.0  
Snow Depth 0.00 in    
Sea Level Pressure  
Sea Level Pressure 29.86 in    
Wind  
Wind Speed 6 mph (NW)    
Max Wind Speed 17 mph    
Max Gust Speed 24 mph    
Visibility 10 miles    
Events      
T = Trace of Precipitation, MM = Missing Value Source: NWS Daily Summary

Daily Weather History Graph

Daily Weather History Graph

Search for Another Location

Airport or City:

Trip Planner

Search our weather history database for the weather conditions in past years. The results will help you decide how hot, cold, wet, or windy it might be!

Date:

Astronomy

Sep. 03, 2012 Rise Set
Actual Time 6:34 AM CDT 7:23 PM CDT
Civil Twilight 6:08 AM CDT 7:48 PM CDT
Nautical Twilight 5:38 AM CDT 8:19 PM CDT
Astronomical Twilight 5:06 AM CDT 8:50 PM CDT
Moon 8:53 PM CDT (9/3) 9:32 AM CDT (9/3)
Length of Visible Light 13h 40m
Length of Day
12h 48m
Waning Gibbous, 90% of the Moon is Illuminated
Sep 3
Waning Gibbous
Sep 8
Last Quarter
Sep 15
New
Sep 22
First Quarter
Sep 29
Full

Hourly Weather History & Observations

Time (CDT) Temp. Heat Index Dew Point Humidity Pressure Visibility Wind Dir Wind Speed Gust Speed Precip Events Conditions
12:46 AM 78.8 °F - 75.2 °F 89% 29.88 in 10.0 mi South 4.6 mph - N/A   Overcast
12:54 AM 78.1 °F - 73.9 °F 87% 29.86 in 10.0 mi South 5.8 mph - N/A   Overcast
1:26 AM 77.0 °F - 73.4 °F 89% 29.87 in 10.0 mi South 4.6 mph - N/A   Scattered Clouds
1:54 AM 77.0 °F - 73.9 °F 90% 29.85 in 10.0 mi SSW 4.6 mph - N/A   Partly Cloudy
2:40 AM 75.2 °F - 73.4 °F 94% 29.86 in 10.0 mi Calm Calm - N/A   Mostly Cloudy
2:47 AM 77.0 °F - 73.4 °F 89% 29.85 in 10.0 mi Calm Calm - N/A   Scattered Clouds
2:54 AM 75.9 °F - 73.0 °F 91% 29.83 in 10.0 mi Calm Calm - N/A   Scattered Clouds
3:54 AM 75.9 °F - 73.0 °F 91% 29.85 in 10.0 mi Calm Calm - N/A   Partly Cloudy
4:54 AM 75.0 °F - 73.0 °F 94% 29.85 in 10.0 mi Calm Calm - N/A   Partly Cloudy
5:54 AM 75.0 °F - 73.0 °F 94% 29.86 in 10.0 mi Calm Calm - N/A   Scattered Clouds
6:54 AM 75.0 °F - 73.0 °F 94% 29.88 in 10.0 mi WNW 3.5 mph - N/A   Scattered Clouds
7:54 AM 79.0 °F - 73.0 °F 82% 29.89 in 10.0 mi WNW 4.6 mph - N/A   Partly Cloudy
8:54 AM 82.0 °F 86.3 °F 71.1 °F 69% 29.89 in 10.0 mi NW 6.9 mph - N/A   Partly Cloudy
9:54 AM 84.0 °F 89.6 °F 72.0 °F 67% 29.91 in 10.0 mi NW 5.8 mph - N/A   Partly Cloudy
10:54 AM 87.1 °F 93.6 °F 72.0 °F 61% 29.90 in 10.0 mi NNW 9.2 mph - N/A   Scattered Clouds
11:54 AM 89.1 °F 97.0 °F 73.0 °F 59% 29.89 in 10.0 mi West 9.2 mph - N/A   Partly Cloudy
12:54 PM 91.0 °F 97.6 °F 71.1 °F 52% 29.88 in 10.0 mi WSW 8.1 mph - N/A   Partly Cloudy
1:54 PM 93.0 °F 97.9 °F 69.1 °F 45% 29.86 in 10.0 mi West 9.2 mph - N/A   Partly Cloudy
2:54 PM 93.9 °F 99.1 °F 69.1 °F 44% 29.84 in 10.0 mi WNW 11.5 mph - N/A   Partly Cloudy
3:54 PM 93.9 °F 100.3 °F 70.0 °F 46% 29.83 in 10.0 mi NW 11.5 mph - N/A   Partly Cloudy
4:54 PM 93.9 °F 100.3 °F 70.0 °F 46% 29.83 in 10.0 mi NNW 11.5 mph 19.6 mph N/A   Partly Cloudy
5:54 PM 91.9 °F 98.4 °F 71.1 °F 50% 29.82 in 10.0 mi North 11.5 mph - N/A   Partly Cloudy
6:54 PM 90.0 °F 95.4 °F 70.0 °F 52% 29.83 in 10.0 mi NNW 6.9 mph - N/A   Partly Cloudy
7:54 PM 87.1 °F 92.8 °F 71.1 °F 59% 29.83 in 10.0 mi North 5.8 mph - N/A   Scattered Clouds
8:54 PM 86.0 °F 91.5 °F 71.1 °F 61% 29.84 in 10.0 mi NNE 3.5 mph - N/A   Partly Cloudy
9:54 PM 86.0 °F 92.2 °F 72.0 °F 63% 29.86 in 10.0 mi NE 12.7 mph - N/A   Partly Cloudy
10:54 PM 82.9 °F 87.5 °F 71.1 °F 67% 29.87 in 10.0 mi NE 6.9 mph - N/A   Partly Cloudy
11:54 PM 82.0 °F 86.7 °F 72.0 °F 71% 29.87 in 10.0 mi ENE 4.6 mph - N/A   Scattered Clouds